| time (UTC) | temp F | wind direction | speed knots | gust knots | rain 1hr in | rain 24hr in | rain mn in | humidity % | barometer mb |
| 20260509193023 | 58 | 197 | 0.0 | 0.0 | 0.00 | 0.00 | 0.00 | 37 | 1003.2 |
| 20260509191521 | 57 | 212 | 0.0 | 0.0 | 0.00 | 0.00 | 0.00 | 41 | 1003.4 |
| 20260509190022 | 57 | 162 | 0.0 | 0.0 | 0.00 | 0.00 | 0.00 | 41 | 1003.6 |
| 20260509184525 | 56 | 148 | 0.0 | 0.0 | 0.00 | 0.00 | 0.00 | 44 | 1003.6 |
| 20260509183018 | 57 | 168 | 0.0 | 0.0 | 0.00 | 0.00 | 0.00 | 44 | 1003.7 |
| 20260509181515 | 56 | 88 | 0.0 | 0.0 | 0.00 | 0.00 | 0.00 | 43 | 1003.6 |
| 20260509180012 | 55 | 82 | 0.0 | 0.0 | 0.00 | 0.00 | 0.00 | 48 | 1003.6 |
| 20260509174510 | 54 | 60 | 0.0 | 0.0 | 0.00 | 0.00 | 0.00 | 50 | 1003.7 |
| 20260509173006 | 53 | 125 | 0.0 | 0.0 | 0.00 | 0.00 | 0.00 | 53 | 1003.8 |
| 20260509171504 | 52 | 139 | 0.0 | 0.0 | 0.00 | 0.00 | 0.00 | 53 | 1003.8 |
| 20260509170002 | 51 | 156 | 0.0 | 0.0 | 0.00 | 0.00 | 0.00 | 59 | 1003.8 |
| 20260509164600 | 51 | 150 | 0.0 | 0.0 | 0.00 | 0.00 | 0.00 | 58 | 1003.7 |
| 20260509164503 | 51 | 126 | 0.0 | 0.0 | 0.00 | 0.00 | 0.00 | 58 | 1003.7 |
| 20260509163058 | 50 | 110 | 0.0 | 0.0 | 0.00 | 0.00 | 0.00 | 57 | 1003.6 |
| 20260509161603 | 49 | 178 | 0.0 | 0.0 | 0.00 | 0.00 | 0.00 | 62 | 1003.6 |
| 20260509160058 | 49 | 205 | 0.0 | 0.0 | 0.00 | 0.00 | 0.00 | 63 | 1003.4 |
| 20260509154609 | 49 | 240 | 0.0 | 0.0 | 0.00 | 0.00 | 0.00 | 64 | 1003.5 |
| 20260509153108 | 46 | 250 | 0.0 | 0.0 | 0.00 | 0.00 | 0.00 | 69 | 1003.5 |
| 20260509151601 | 46 | 264 | 0.0 | 0.0 | 0.00 | 0.00 | 0.00 | 69 | 1003.4 |
| 20260509150053 | 46 | 285 | 0.0 | 0.0 | 0.00 | 0.00 | 0.00 | 65 | 1003.3 |
| 20260509144550 | 47 | 285 | 0.0 | 0.0 | 0.00 | 0.00 | 0.00 | 60 | 1003.2 |
| 20260509143102 | 47 | 285 | 0.0 | 0.0 | 0.00 | 0.00 | 0.00 | 61 | 1003.2 |
| 20260509141548 | 47 | 285 | 0.0 | 0.0 | 0.00 | 0.00 | 0.00 | 62 | 1003.2 |
| 20260509140046 | 47 | 289 | 0.0 | 0.0 | 0.00 | 0.00 | 0.00 | 58 | 1002.9 |
| 20260509134545 | 47 | 283 | 0.0 | 0.0 | 0.00 | 0.00 | 0.00 | 57 | 1002.8 |
| 20260509133056 | 48 | 283 | 0.0 | 0.0 | 0.00 | 0.00 | 0.00 | 56 | 1002.7 |
| 20260509131542 | 47 | 283 | 0.0 | 0.0 | 0.00 | 0.00 | 0.00 | 56 | 1002.4 |
| 20260509130041 | 46 | 283 | 0.0 | 0.0 | 0.00 | 0.00 | 0.00 | 59 | 1002.3 |
| 20260509114534 | 49 | 316 | 0.0 | 0.0 | 0.00 | 0.00 | 0.00 | 53 | 1001.8 |
| 20260509113030 | 48 | 329 | 0.0 | 0.0 | 0.00 | 0.00 | 0.00 | 54 | 1001.8 |
| 20260509111528 | 47 | 322 | 0.0 | 0.0 | 0.00 | 0.00 | 0.00 | 57 | 1001.8 |
| 20260509110027 | 48 | 301 | 0.0 | 0.0 | 0.00 | 0.00 | 0.00 | 55 | 1001.7 |
| 20260509104526 | 49 | 296 | 0.0 | 0.0 | 0.00 | 0.00 | 0.00 | 53 | 1001.7 |
| 20260509103025 | 48 | 290 | 0.0 | 0.0 | 0.00 | 0.00 | 0.00 | 56 | 1001.7 |
| 20260509101529 | 47 | 302 | 0.0 | 0.0 | 0.00 | 0.00 | 0.00 | 58 | 1001.7 |
| 20260509100022 | 47 | 296 | 0.0 | 0.0 | 0.00 | 0.00 | 0.00 | 60 | 1001.6 |
| 20260509094529 | 47 | 302 | 0.0 | 0.0 | 0.00 | 0.00 | 0.00 | 60 | 1001.5 |
| 20260509093019 | 47 | 296 | 0.0 | 0.0 | 0.00 | 0.00 | 0.00 | 59 | 1001.4 |
| 20260509091523 | 48 | 306 | 0.0 | 0.0 | 0.00 | 0.00 | 0.00 | 58 | 1001.3 |
| 20260509090013 | 48 | 290 | 0.0 | 0.0 | 0.00 | 0.00 | 0.00 | 56 | 1001.3 |
| 20260509084513 | 49 | 273 | 0.0 | 0.0 | 0.00 | 0.00 | 0.00 | 54 | 1001.3 |
| 20260509083012 | 49 | 271 | 0.0 | 0.0 | 0.00 | 0.00 | 0.00 | 54 | 1001.2 |
| 20260509081521 | 50 | 301 | 0.0 | 0.0 | 0.00 | 0.00 | 0.00 | 53 | 1001.2 |
| 20260509080006 | 50 | 315 | 0.0 | 0.0 | 0.00 | 0.00 | 0.00 | 53 | 1001.2 |
| 20260509074503 | 50 | 327 | 0.0 | 0.0 | 0.00 | 0.00 | 0.00 | 51 | 1001.1 |
| 20260509073100 | 51 | 319 | 0.0 | 0.0 | 0.00 | 0.00 | 0.00 | 51 | 1000.9 |
| 20260509071600 | 51 | 317 | 0.0 | 0.0 | 0.00 | 0.00 | 0.00 | 50 | 1001.0 |
| 20260509070105 | 51 | 304 | 0.0 | 0.0 | 0.00 | 0.00 | 0.00 | 49 | 1000.7 |
| 20260509070038 | 51 | 324 | 0.0 | 0.0 | 0.00 | 0.00 | 0.00 | 49 | 1000.8 |
| 20260509064553 | 51 | 323 | 0.0 | 0.0 | 0.00 | 0.00 | 0.00 | 49 | 1000.5 |
| 20260509063109 | 52 | 306 | 0.0 | 0.0 | 0.00 | 0.00 | 0.00 | 49 | 1000.1 |
| 20260509061612 | 52 | 306 | 0.0 | 0.0 | 0.00 | 0.00 | 0.00 | 47 | 1000.1 |
| 20260509060057 | 52 | 315 | 0.0 | 0.0 | 0.00 | 0.00 | 0.00 | 47 | 1000.0 |
| 20260509054547 | 53 | 323 | 0.0 | 0.0 | 0.00 | 0.00 | 0.00 | 45 | 999.6 |
| 20260509053047 | 53 | 311 | 0.0 | 0.0 | 0.00 | 0.00 | 0.00 | 44 | 999.7 |
| 20260509051544 | 54 | 311 | 0.0 | 0.0 | 0.00 | 0.00 | 0.00 | 42 | 999.2 |
| 20260509050043 | 55 | 314 | 0.0 | 0.0 | 0.00 | 0.00 | 0.00 | 40 | 998.7 |
| 20260509044542 | 55 | 321 | 0.0 | 0.0 | 0.00 | 0.00 | 0.00 | 38 | 998.8 |
| 20260509043041 | 55 | 300 | 0.0 | 0.0 | 0.00 | 0.00 | 0.00 | 36 | 999.1 |
| 20260509041540 | 56 | 333 | 0.0 | 0.0 | 0.00 | 0.00 | 0.00 | 35 | 998.8 |
| 20260509040040 | 56 | 253 | 0.0 | 0.0 | 0.00 | 0.00 | 0.00 | 34 | 998.3 |
| 20260509034540 | 57 | 321 | 0.0 | 0.0 | 0.00 | 0.00 | 0.00 | 32 | 998.2 |
| 20260509033040 | 57 | 328 | 0.0 | 0.0 | 0.00 | 0.00 | 0.00 | 31 | 998.0 |
| 20260509031538 | 58 | 333 | 0.0 | 0.0 | 0.00 | 0.00 | 0.00 | 30 | 997.9 |
| 20260509030041 | 59 | 309 | 0.0 | 0.0 | 0.00 | 0.00 | 0.00 | 30 | 997.9 |
| 20260509024540 | 59 | 318 | 0.0 | 0.0 | 0.00 | 0.00 | 0.00 | 29 | 998.0 |
| 20260509023037 | 60 | 318 | 0.0 | 0.0 | 0.00 | 0.00 | 0.00 | 28 | 997.7 |
| 20260509021536 | 61 | 319 | 0.0 | 0.0 | 0.00 | 0.00 | 0.00 | 29 | 997.4 |
| 20260509020048 | 62 | 309 | 0.0 | 0.0 | 0.00 | 0.00 | 0.00 | 32 | 997.5 |
| 20260509014545 | 62 | 300 | 0.0 | 0.0 | 0.00 | 0.00 | 0.00 | 34 | 997.1 |
| 20260509013040 | 63 | 308 | 0.0 | 0.0 | 0.00 | 0.00 | 0.00 | 34 | 997.3 |
| 20260509011534 | 63 | 299 | 0.0 | 0.0 | 0.00 | 0.00 | 0.00 | 31 | 997.3 |
| 20260509010033 | 64 | 297 | 0.0 | 0.0 | 0.00 | 0.00 | 0.00 | 29 | 997.3 |
| 20260509004536 | 64 | 271 | 0.0 | 0.0 | 0.00 | 0.00 | 0.00 | 25 | 997.4 |
| 20260509003040 | 64 | 296 | 0.0 | 0.0 | 0.00 | 0.00 | 0.00 | 25 | 997.4 |
| 20260509001532 | 64 | 272 | 0.0 | 0.0 | 0.00 | 0.00 | 0.00 | 27 | 997.4 |
| 20260509000032 | 64 | 281 | 0.0 | 0.0 | 0.00 | 0.00 | 0.00 | 26 | 997.5 |
| 20260508234532 | 64 | 276 | 0.0 | 0.0 | 0.00 | 0.00 | 0.00 | 27 | 997.3 |
| 20260508233032 | 64 | 296 | 0.0 | 0.0 | 0.00 | 0.00 | 0.00 | 26 | 997.3 |
| 20260508231530 | 64 | 281 | 0.0 | 0.0 | 0.00 | 0.00 | 0.00 | 25 | 997.4 |
| 20260508230030 | 64 | 269 | 0.0 | 0.0 | 0.00 | 0.00 | 0.00 | 28 | 997.4 |
| 20260508224532 | 63 | 266 | 0.0 | 0.0 | 0.00 | 0.00 | 0.00 | 27 | 997.7 |
| 20260508223034 | 63 | 255 | 0.0 | 0.0 | 0.00 | 0.00 | 0.00 | 28 | 997.6 |
| 20260508221527 | 64 | 276 | 0.0 | 0.0 | 0.00 | 0.00 | 0.00 | 28 | 997.7 |
| 20260508220030 | 63 | 252 | 0.0 | 0.0 | 0.00 | 0.00 | 0.00 | 29 | 997.7 |
| 20260508214525 | 63 | 253 | 0.0 | 0.0 | 0.00 | 0.00 | 0.00 | 28 | 997.8 |
| 20260508213027 | 63 | 275 | 0.0 | 0.0 | 0.00 | 0.00 | 0.00 | 28 | 997.8 |
| 20260508211524 | 63 | 239 | 0.0 | 0.0 | 0.00 | 0.00 | 0.00 | 27 | 997.9 |
| 20260508210023 | 62 | 242 | 0.0 | 0.0 | 0.00 | 0.00 | 0.00 | 27 | 998.1 |
| 20260508204523 | 62 | 273 | 0.0 | 0.0 | 0.00 | 0.00 | 0.00 | 27 | 998.2 |
| 20260508203022 | 62 | 270 | 0.0 | 0.0 | 0.00 | 0.00 | 0.00 | 24 | 998.2 |
| 20260508201526 | 62 | 254 | 0.0 | 0.0 | 0.00 | 0.00 | 0.00 | 29 | 998.1 |
| 20260508200024 | 61 | 271 | 0.0 | 0.0 | 0.00 | 0.00 | 0.00 | 30 | 998.2 |
| 20260508194519 | 61 | 243 | 0.0 | 0.0 | 0.00 | 0.00 | 0.00 | 29 | 998.3 |